Location: Dortmund
(51.5019°N, 7.6520°E)
Time: 06:20:15
(UTC+01:00)

Tiangong 2 - Visible Passes

Search period start: 23 November 2017 00:00
Search period end: 03 December 2017 00:00
Orbit: 386 x 392 km, 42.8° (Epoch: 22 November)

Date Brightness Start Highest point End Pass type
(mag) Time Alt. Az. Time Alt. Az. Time Alt. Az.
29 Nov 4.0 06:30:49 10° S 06:32:07 12° SSE 06:33:25 10° SE visible
30 Nov 3.7 07:08:01 10° SW 07:10:10 17° S 07:12:19 10° SE visible
01 Dec 3.7 06:10:29 11° SSW 06:12:08 15° SSE 06:14:03 10° SE visible
02 Dec 4.3 05:15:07 11° SE 05:15:07 11° SE 05:15:31 10° SE visible
02 Dec 3.5 06:47:59 10° SW 06:50:12 18° S 06:52:26 10° SE visible
